| time (UTC) | temp F | wind direction | speed knots | gust knots | rain 1hr in | rain 24hr in | rain mn in | humidity % | barometer mb |
| 20260906113825 | 64 | 278 | 0.0 | 0.0 | 0.00 | 0.20 | 0.00 | 99 | 1016.7 |
| 20260906113359 | 64 | 278 | 0.0 | 0.0 | 0.00 | 0.20 | 0.00 | 99 | 1016.7 |
| 20260906112852 | 64 | 278 | 0.0 | 0.0 | 0.00 | 0.20 | 0.00 | 99 | 1016.6 |
| 20260906112344 | 64 | 278 | 0.0 | 0.0 | 0.00 | 0.20 | 0.00 | 100 | 1016.6 |
| 20260906111838 | 64 | 278 | 0.0 | 0.0 | 0.00 | 0.20 | 0.00 | 100 | 1016.6 |
| 20260906111331 | 64 | 279 | 0.0 | 0.0 | 0.00 | 0.20 | 0.00 | 100 | 1016.5 |
| 20260906110903 | 64 | 278 | 0.0 | 0.0 | 0.00 | 0.20 | 0.00 | 100 | 1016.4 |
| 20260906110356 | 64 | 278 | 0.0 | 0.0 | 0.00 | 0.20 | 0.00 | 99 | 1016.4 |
| 20260906105834 | 64 | 278 | 0.0 | 0.0 | 0.00 | 0.20 | 0.00 | 99 | 1016.2 |
| 20260906105407 | 64 | 278 | 0.0 | 0.0 | 0.00 | 0.20 | 0.00 | 99 | 1016.1 |
| 20260906104858 | 64 | 278 | 0.0 | 0.0 | 0.00 | 0.20 | 0.00 | 99 | 1016.2 |
| 20260906103826 | 64 | 278 | 0.0 | 0.0 | 0.00 | 0.20 | 0.00 | 99 | 1016.1 |
| 20260906103319 | 64 | 278 | 0.0 | 0.0 | 0.00 | 0.20 | 0.00 | 99 | 1016.0 |
| 20260906102813 | 64 | 278 | 0.0 | 0.0 | 0.00 | 0.20 | 0.00 | 99 | 1016.0 |
| 20260906102405 | 64 | 278 | 0.0 | 0.0 | 0.00 | 0.20 | 0.00 | 99 | 1016.0 |
| 20260906100833 | 65 | 279 | 0.0 | 0.0 | 0.00 | 0.20 | 0.00 | 100 | 1016.0 |
| 20260906100406 | 65 | 278 | 0.0 | 0.0 | 0.00 | 0.20 | 0.00 | 100 | 1015.9 |
| 20260906095859 | 64 | 278 | 0.0 | 0.0 | 0.00 | 0.20 | 0.00 | 100 | 1015.9 |
| 20260906095351 | 64 | 278 | 0.0 | 0.0 | 0.00 | 0.20 | 0.00 | 100 | 1015.8 |
| 20260906094842 | 64 | 278 | 0.0 | 0.0 | 0.00 | 0.20 | 0.00 | 100 | 1015.9 |
| 20260906094336 | 64 | 278 | 0.0 | 0.0 | 0.00 | 0.20 | 0.00 | 100 | 1015.8 |
| 20260906093829 | 64 | 278 | 0.0 | 0.0 | 0.00 | 0.20 | 0.00 | 100 | 1015.7 |
| 20260906093403 | 64 | 278 | 0.0 | 0.0 | 0.00 | 0.20 | 0.00 | 99 | 1015.6 |
| 20260906092840 | 63 | 278 | 0.0 | 0.0 | 0.00 | 0.20 | 0.00 | 99 | 1015.5 |
| 20260906091848 | 63 | 278 | 0.0 | 0.0 | 0.00 | 0.20 | 0.00 | 99 | 1015.4 |
| 20260906091341 | 63 | 278 | 0.0 | 0.0 | 0.00 | 0.20 | 0.00 | 99 | 1015.5 |
| 20260906090835 | 63 | 278 | 0.0 | 0.0 | 0.00 | 0.20 | 0.00 | 99 | 1015.5 |
| 20260906090327 | 63 | 278 | 0.0 | 0.0 | 0.00 | 0.20 | 0.00 | 99 | 1015.4 |
| 20260906085901 | 63 | 278 | 0.0 | 0.0 | 0.00 | 0.20 | 0.00 | 99 | 1015.4 |
| 20260906084326 | 64 | 278 | 0.0 | 0.0 | 0.00 | 0.20 | 0.00 | 99 | 1015.5 |
| 20260906083900 | 64 | 278 | 0.0 | 0.0 | 0.00 | 0.20 | 0.00 | 99 | 1015.6 |
| 20260906083353 | 63 | 278 | 0.0 | 0.0 | 0.00 | 0.20 | 0.00 | 99 | 1015.6 |
| 20260906082846 | 63 | 278 | 0.0 | 0.0 | 0.00 | 0.20 | 0.00 | 99 | 1015.7 |
| 20260906082339 | 63 | 278 | 0.0 | 0.0 | 0.00 | 0.20 | 0.00 | 99 | 1015.6 |
| 20260906081833 | 63 | 278 | 0.0 | 0.0 | 0.00 | 0.20 | 0.00 | 99 | 1015.6 |
| 20260906081325 | 63 | 278 | 0.0 | 0.0 | 0.00 | 0.20 | 0.00 | 99 | 1015.7 |
| 20260906080859 | 63 | 278 | 0.0 | 0.0 | 0.00 | 0.20 | 0.00 | 99 | 1015.6 |
| 20260906075851 | 63 | 278 | 0.0 | 0.0 | 0.00 | 0.20 | 0.00 | 99 | 1015.6 |
| 20260906075343 | 62 | 278 | 0.0 | 0.0 | 0.00 | 0.20 | 0.00 | 99 | 1015.5 |
| 20260906074833 | 62 | 278 | 0.0 | 0.0 | 0.00 | 0.20 | 0.00 | 99 | 1015.4 |
| 20260906074327 | 62 | 278 | 0.0 | 0.9 | 0.00 | 0.20 | 0.00 | 98 | 1015.4 |
| 20260906073819 | 62 | 278 | 0.0 | 0.9 | 0.00 | 0.20 | 0.00 | 98 | 1015.4 |
| 20260906072849 | 62 | 278 | 0.0 | 2.6 | 0.00 | 0.20 | 0.00 | 98 | 1015.4 |
| 20260906072326 | 62 | 278 | 1.7 | 2.6 | 0.00 | 0.20 | 0.00 | 98 | 1015.5 |
| 20260906070850 | 63 | 278 | 0.0 | 0.0 | 0.00 | 0.20 | 0.00 | 98 | 1015.6 |
| 20260906070343 | 63 | 278 | 0.0 | 0.9 | 0.00 | 0.20 | 0.00 | 98 | 1015.6 |
| 20260906065836 | 63 | 278 | 0.0 | 0.9 | 0.00 | 0.20 | 0.00 | 98 | 1015.5 |
| 20260906065329 | 63 | 278 | 0.0 | 0.0 | 0.00 | 0.20 | 0.00 | 99 | 1015.6 |
| 20260906064902 | 63 | 278 | 0.0 | 0.0 | 0.00 | 0.20 | 0.00 | 99 | 1015.6 |
| 20260906064355 | 63 | 278 | 0.0 | 0.0 | 0.00 | 0.20 | 0.00 | 98 | 1015.9 |
| 20260906062903 | 63 | 278 | 0.0 | 1.7 | 0.00 | 0.20 | 0.00 | 97 | 1016.0 |
| 20260906062356 | 63 | 278 | 0.9 | 1.7 | 0.00 | 0.20 | 0.00 | 97 | 1015.9 |
| 20260906061848 | 63 | 278 | 0.0 | 0.0 | 0.00 | 0.20 | 0.00 | 97 | 1015.8 |
| 20260906061342 | 63 | 278 | 0.0 | 0.9 | 0.00 | 0.20 | 0.00 | 96 | 1015.9 |
| 20260906060834 | 64 | 278 | 0.0 | 0.9 | 0.00 | 0.20 | 0.00 | 96 | 1016.0 |
| 20260906060327 | 65 | 278 | 0.0 | 2.6 | 0.00 | 0.20 | 0.00 | 98 | 1016.1 |
| 20260906055824 | 65 | 8 | 0.9 | 2.6 | 0.00 | 0.20 | 0.00 | 99 | 1016.2 |
| 20260906054812 | 65 | 327 | 0.0 | 0.0 | 0.00 | 0.20 | 0.00 | 98 | 1016.2 |
| 20260906054325 | 65 | 327 | 0.0 | 0.0 | 0.00 | 0.20 | 0.00 | 98 | 1016.3 |
| 20260906053818 | 65 | 327 | 0.0 | 0.0 | 0.00 | 0.20 | 0.00 | 98 | 1016.2 |
| 20260906053331 | 65 | 327 | 0.0 | 0.0 | 0.00 | 0.20 | 0.00 | 98 | 1016.2 |
| 20260906052823 | 65 | 327 | 0.0 | 0.0 | 0.00 | 0.20 | 0.00 | 98 | 1016.2 |
| 20260906050825 | 64 | 327 | 0.0 | 0.0 | 0.00 | 0.20 | 0.00 | 98 | 1016.3 |
| 20260906050319 | 64 | 327 | 0.0 | 0.0 | 0.00 | 0.20 | 0.00 | 98 | 1016.3 |
| 20260906045831 | 64 | 327 | 0.0 | 0.0 | 0.00 | 0.20 | 0.00 | 98 | 1016.2 |
| 20260906044827 | 64 | 327 | 0.0 | 0.0 | 0.00 | 0.20 | 0.00 | 97 | 1016.1 |
| 20260906044319 | 64 | 327 | 0.0 | 0.0 | 0.00 | 0.20 | 0.00 | 97 | 1016.1 |
| 20260906043913 | 64 | 327 | 0.0 | 0.0 | 0.00 | 0.20 | 0.00 | 97 | 1016.2 |
| 20260906042815 | 64 | 327 | 0.0 | 0.0 | 0.00 | 0.20 | 0.00 | 97 | 1016.2 |
| 20260906041322 | 64 | 327 | 0.0 | 0.0 | 0.00 | 0.20 | 0.00 | 96 | 1016.2 |
| 20260906035853 | 64 | 327 | 0.0 | 0.0 | 0.00 | 0.20 | 0.00 | 96 | 1016.6 |
| 20260906035345 | 65 | 327 | 0.0 | 0.0 | 0.00 | 0.20 | 0.20 | 96 | 1016.6 |
| 20260906034838 | 65 | 327 | 0.0 | 0.0 | 0.00 | 0.20 | 0.20 | 96 | 1016.7 |
| 20260906034331 | 65 | 327 | 0.0 | 0.0 | 0.00 | 0.20 | 0.20 | 96 | 1016.7 |
| 20260906033359 | 65 | 327 | 0.0 | 0.0 | 0.00 | 0.20 | 0.20 | 96 | 1016.7 |
| 20260906032836 | 65 | 327 | 0.0 | 0.0 | 0.00 | 0.20 | 0.20 | 96 | 1016.8 |
| 20260906031844 | 65 | 327 | 0.0 | 0.0 | 0.00 | 0.20 | 0.20 | 96 | 1016.9 |
| 20260906031338 | 65 | 327 | 0.0 | 0.0 | 0.00 | 0.20 | 0.20 | 96 | 1016.9 |
| 20260906030830 | 65 | 327 | 0.0 | 0.0 | 0.00 | 0.20 | 0.20 | 95 | 1016.8 |
| 20260906030403 | 66 | 327 | 0.0 | 0.0 | 0.00 | 0.20 | 0.20 | 96 | 1016.8 |
| 20260906025857 | 66 | 327 | 0.0 | 0.0 | 0.00 | 0.20 | 0.20 | 95 | 1016.8 |
| 20260906024906 | 66 | 327 | 0.0 | 0.0 | 0.00 | 0.20 | 0.20 | 95 | 1016.8 |
| 20260906024341 | 66 | 327 | 0.0 | 0.0 | 0.00 | 0.20 | 0.20 | 95 | 1016.8 |
| 20260906023834 | 66 | 327 | 0.0 | 0.0 | 0.00 | 0.20 | 0.20 | 95 | 1016.9 |
| 20260906023328 | 66 | 327 | 0.0 | 0.0 | 0.00 | 0.20 | 0.20 | 95 | 1016.9 |
| 20260906022336 | 67 | 327 | 0.0 | 0.0 | 0.00 | 0.20 | 0.20 | 94 | 1016.9 |
| 20260906021829 | 67 | 327 | 0.0 | 0.0 | 0.00 | 0.20 | 0.20 | 94 | 1017.0 |
| 20260906021403 | 67 | 327 | 0.0 | 0.0 | 0.00 | 0.20 | 0.20 | 94 | 1016.9 |
| 20260906020856 | 67 | 327 | 0.0 | 0.0 | 0.00 | 0.20 | 0.20 | 94 | 1017.0 |
| 20260906020333 | 67 | 327 | 0.0 | 0.0 | 0.00 | 0.20 | 0.20 | 94 | 1017.0 |
| 20260906015826 | 67 | 327 | 0.0 | 0.0 | 0.00 | 0.20 | 0.20 | 93 | 1016.9 |
| 20260906015400 | 67 | 327 | 0.0 | 0.9 | 0.00 | 0.20 | 0.20 | 93 | 1016.9 |
| 20260906014854 | 67 | 327 | 0.0 | 0.9 | 0.00 | 0.20 | 0.20 | 93 | 1016.8 |
| 20260906013821 | 68 | 327 | 0.0 | 0.9 | 0.00 | 0.20 | 0.20 | 93 | 1016.9 |
| 20260906013314 | 68 | 327 | 0.0 | 0.9 | 0.00 | 0.20 | 0.20 | 93 | 1016.8 |
| 20260906012342 | 68 | 327 | 0.0 | 1.7 | 0.00 | 0.20 | 0.20 | 92 | 1016.6 |
| 20260906011819 | 68 | 327 | 0.0 | 1.7 | 0.00 | 0.20 | 0.20 | 91 | 1016.5 |
| 20260906011351 | 68 | 327 | 0.0 | 0.0 | 0.00 | 0.20 | 0.20 | 91 | 1016.5 |
| 20260906010844 | 68 | 327 | 0.0 | 0.0 | 0.00 | 0.20 | 0.20 | 91 | 1016.4 |
| 20260906010336 | 69 | 327 | 0.0 | 0.0 | 0.00 | 0.20 | 0.20 | 90 | 1016.4 |
| 20260906005829 | 69 | 327 | 0.0 | 0.9 | 0.00 | 0.20 | 0.20 | 90 | 1016.2 |
| 20260906005402 | 69 | 327 | 0.0 | 0.9 | 0.00 | 0.20 | 0.20 | 90 | 1016.1 |
| 20260906004855 | 69 | 327 | 0.0 | 1.7 | 0.00 | 0.20 | 0.20 | 89 | 1016.1 |
| 20260906003901 | 70 | 327 | 0.9 | 1.7 | 0.00 | 0.20 | 0.20 | 88 | 1016.1 |
| 20260906003339 | 70 | 327 | 0.0 | 0.0 | 0.00 | 0.20 | 0.20 | 88 | 1016.0 |
| 20260906002831 | 71 | 327 | 0.0 | 0.0 | 0.00 | 0.20 | 0.20 | 87 | 1016.0 |
| 20260906002405 | 71 | 327 | 0.0 | 1.7 | 0.00 | 0.20 | 0.20 | 87 | 1016.0 |
| 20260906001859 | 71 | 327 | 0.0 | 2.6 | 0.00 | 0.20 | 0.20 | 87 | 1016.1 |
| 20260906001352 | 71 | 327 | 0.9 | 3.5 | 0.00 | 0.20 | 0.20 | 86 | 1016.0 |
| 20260906000841 | 71 | 318 | 0.9 | 2.6 | 0.00 | 0.20 | 0.20 | 86 | 1016.2 |
| 20260906000318 | 71 | 20 | 0.9 | 2.6 | 0.00 | 0.20 | 0.20 | 86 | 1016.0 |
| 20260905235908 | 72 | 1 | 0.0 | 1.7 | 0.00 | 0.20 | 0.20 | 86 | 1016.1 |
| 20260905235344 | 72 | 1 | 0.0 | 0.0 | 0.00 | 0.20 | 0.20 | 86 | 1016.1 |
| 20260905234351 | 72 | 1 | 0.0 | 3.5 | 0.00 | 0.20 | 0.20 | 86 | 1016.1 |
| 20260905233843 | 72 | 1 | 0.9 | 3.5 | 0.00 | 0.20 | 0.20 | 85 | 1016.1 |
| 20260905233336 | 72 | 44 | 0.9 | 1.7 | 0.00 | 0.20 | 0.20 | 85 | 1016.1 |
| 20260905232829 | 72 | 44 | 0.0 | 2.6 | 0.00 | 0.20 | 0.20 | 85 | 1016.2 |
| 20260905232403 | 73 | 44 | 0.0 | 2.6 | 0.00 | 0.20 | 0.20 | 85 | 1016.2 |
| 20260905231856 | 73 | 44 | 0.9 | 3.5 | 0.00 | 0.20 | 0.20 | 84 | 1016.1 |
| 20260905231332 | 73 | 1 | 1.7 | 3.5 | 0.00 | 0.20 | 0.20 | 83 | 1016.2 |
| 20260905230826 | 73 | 18 | 0.9 | 5.2 | 0.00 | 0.20 | 0.20 | 83 | 1016.2 |
| 20260905230400 | 74 | 354 | 3.5 | 5.2 | 0.00 | 0.20 | 0.20 | 82 | 1016.2 |
| 20260905225853 | 74 | 25 | 2.6 | 5.2 | 0.00 | 0.20 | 0.20 | 82 | 1016.2 |
| 20260905225345 | 74 | 15 | 2.6 | 7.8 | 0.00 | 0.20 | 0.20 | 81 | 1016.3 |
| 20260905224312 | 75 | 331 | 2.6 | 5.2 | 0.00 | 0.20 | 0.20 | 81 | 1016.2 |
| 20260905223906 | 75 | 360 | 3.5 | 6.1 | 0.00 | 0.20 | 0.20 | 80 | 1016.2 |
| 20260905223342 | 75 | 1 | 3.5 | 6.1 | 0.00 | 0.20 | 0.20 | 80 | 1016.1 |
| 20260905222836 | 76 | 20 | 2.6 | 5.2 | 0.00 | 0.20 | 0.20 | 80 | 1016.2 |
| 20260905222329 | 76 | 25 | 1.7 | 5.2 | 0.00 | 0.20 | 0.20 | 80 | 1016.2 |
| 20260905221903 | 76 | 295 | 0.9 | 7.0 | 0.00 | 0.20 | 0.20 | 79 | 1016.2 |
| 20260905220831 | 76 | 330 | 2.6 | 6.1 | 0.00 | 0.20 | 0.20 | 79 | 1015.9 |
| 20260905220404 | 76 | 1 | 2.6 | 6.1 | 0.00 | 0.20 | 0.20 | 78 | 1015.9 |
| 20260905215857 | 77 | 18 | 1.7 | 6.1 | 0.00 | 0.20 | 0.20 | 77 | 1015.9 |
| 20260905214848 | 77 | 345 | 1.7 | 7.0 | 0.00 | 0.20 | 0.20 | 76 | 1015.7 |
| 20260905214341 | 78 | 250 | 1.7 | 7.0 | 0.00 | 0.20 | 0.20 | 74 | 1015.6 |
| 20260905213833 | 79 | 359 | 3.5 | 6.1 | 0.00 | 0.20 | 0.20 | 73 | 1015.6 |
| 20260905213327 | 79 | 314 | 2.6 | 7.8 | 0.00 | 0.20 | 0.20 | 72 | 1015.5 |
| 20260905212820 | 79 | 218 | 1.7 | 7.8 | 0.00 | 0.20 | 0.20 | 73 | 1015.5 |
| 20260905212413 | 79 | 239 | 2.6 | 6.1 | 0.00 | 0.20 | 0.20 | 72 | 1015.5 |
| 20260905211820 | 79 | 219 | 2.6 | 5.2 | 0.00 | 0.20 | 0.20 | 73 | 1015.5 |
| 20260905211314 | 78 | 68 | 1.7 | 5.2 | 0.00 | 0.20 | 0.20 | 73 | 1015.4 |
| 20260905210907 | 78 | 319 | 3.5 | 7.8 | 0.00 | 0.20 | 0.20 | 72 | 1015.4 |
| 20260905210343 | 78 | 266 | 2.6 | 7.8 | 0.00 | 0.20 | 0.20 | 73 | 1015.4 |
| 20260905205837 | 78 | 328 | 2.6 | 8.7 | 0.00 | 0.20 | 0.20 | 73 | 1015.4 |
| 20260905205330 | 78 | 148 | 2.6 | 9.6 | 0.00 | 0.20 | 0.20 | 74 | 1015.4 |
| 20260905203833 | 79 | 25 | 3.5 | 7.8 | 0.00 | 0.20 | 0.20 | 72 | 1015.3 |
| 20260905203321 | 79 | 14 | 2.6 | 6.1 | 0.00 | 0.20 | 0.20 | 74 | 1015.3 |
| 20260905202815 | 79 | 1 | 2.6 | 6.1 | 0.00 | 0.20 | 0.20 | 72 | 1015.3 |
| 20260905202407 | 79 | 167 | 1.7 | 7.0 | 0.00 | 0.20 | 0.20 | 73 | 1015.4 |
| 20260905201845 | 79 | 8 | 3.5 | 7.8 | 0.00 | 0.20 | 0.20 | 73 | 1015.3 |
| 20260905201338 | 79 | 344 | 3.5 | 7.8 | 0.00 | 0.20 | 0.20 | 73 | 1015.3 |
| 20260905200830 | 78 | 342 | 3.5 | 10.4 | 0.00 | 0.20 | 0.20 | 74 | 1015.3 |
| 20260905200403 | 78 | 41 | 3.5 | 10.4 | 0.00 | 0.20 | 0.20 | 74 | 1015.3 |
| 20260905195332 | 79 | 342 | 5.2 | 11.3 | 0.00 | 0.20 | 0.20 | 73 | 1015.5 |
| 20260905194905 | 79 | 54 | 3.5 | 11.3 | 0.00 | 0.20 | 0.20 | 73 | 1015.6 |
| 20260905194356 | 79 | 356 | 2.6 | 6.1 | 0.00 | 0.20 | 0.20 | 75 | 1015.6 |
| 20260905192904 | 79 | 333 | 2.6 | 7.8 | 0.00 | 0.20 | 0.20 | 76 | 1015.8 |
| 20260905192358 | 78 | 21 | 3.5 | 6.1 | 0.00 | 0.20 | 0.20 | 78 | 1015.9 |
| 20260905191851 | 78 | 353 | 1.7 | 8.7 | 0.00 | 0.20 | 0.20 | 78 | 1016.0 |
| 20260905191344 | 78 | 224 | 3.5 | 8.7 | 0.00 | 0.20 | 0.20 | 77 | 1016.1 |
| 20260905190837 | 78 | 281 | 3.5 | 10.4 | 0.00 | 0.20 | 0.20 | 79 | 1016.1 |
| 20260905190331 | 78 | 259 | 3.5 | 10.4 | 0.00 | 0.20 | 0.20 | 76 | 1016.1 |
| 20260905184818 | 77 | 322 | 2.6 | 7.0 | 0.00 | 0.20 | 0.20 | 77 | 1016.5 |
| 20260905184350 | 77 | 27 | 3.5 | 6.1 | 0.00 | 0.20 | 0.20 | 78 | 1016.5 |
| 20260905183842 | 77 | 1 | 2.6 | 6.1 | 0.00 | 0.20 | 0.20 | 78 | 1016.6 |
| 20260905183335 | 77 | 267 | 3.5 | 6.1 | 0.00 | 0.20 | 0.20 | 78 | 1016.6 |
| 20260905182828 | 77 | 229 | 1.7 | 7.0 | 0.00 | 0.20 | 0.20 | 81 | 1016.6 |
| 20260905181836 | 77 | 1 | 1.7 | 7.0 | 0.00 | 0.20 | 0.20 | 79 | 1016.7 |
| 20260905181314 | 76 | 302 | 3.5 | 7.0 | 0.00 | 0.20 | 0.20 | 80 | 1016.7 |
| 20260905180903 | 76 | 283 | 2.6 | 6.1 | 0.00 | 0.20 | 0.20 | 80 | 1016.7 |
| 20260905180340 | 76 | 6 | 1.7 | 6.1 | 0.00 | 0.20 | 0.20 | 83 | 1016.8 |
| 20260905175832 | 76 | 135 | 0.9 | 6.1 | 0.00 | 0.20 | 0.20 | 88 | 1017.0 |
| 20260905175406 | 75 | 312 | 2.6 | 5.2 | 0.00 | 0.20 | 0.20 | 85 | 1017.1 |
| 20260905174859 | 75 | 218 | 1.7 | 6.1 | 0.00 | 0.20 | 0.20 | 86 | 1017.2 |
| 20260905174351 | 74 | 251 | 1.7 | 7.8 | 0.00 | 0.20 | 0.20 | 88 | 1017.2 |
| 20260905173844 | 74 | 352 | 2.6 | 7.8 | 0.00 | 0.20 | 0.20 | 87 | 1017.3 |
| 20260905173337 | 74 | 283 | 2.6 | 5.2 | 0.00 | 0.20 | 0.20 | 87 | 1017.3 |
| 20260905172815 | 74 | 19 | 1.7 | 5.2 | 0.00 | 0.20 | 0.20 | 89 | 1017.4 |
| 20260905172348 | 73 | 267 | 1.7 | 3.5 | 0.00 | 0.20 | 0.20 | 88 | 1017.4 |
| 20260905171841 | 73 | 255 | 1.7 | 4.3 | 0.00 | 0.20 | 0.20 | 89 | 1017.5 |
| 20260905171335 | 73 | 242 | 1.7 | 5.2 | 0.00 | 0.20 | 0.20 | 90 | 1017.4 |
| 20260905170827 | 73 | 319 | 1.7 | 4.3 | 0.00 | 0.20 | 0.20 | 90 | 1017.3 |
| 20260905165836 | 73 | 224 | 0.9 | 4.3 | 0.00 | 0.20 | 0.20 | 89 | 1017.4 |
| 20260905165314 | 73 | 283 | 0.0 | 4.3 | 0.00 | 0.20 | 0.20 | 88 | 1017.5 |
| 20260905164903 | 73 | 359 | 0.0 | 4.3 | 0.00 | 0.20 | 0.20 | 88 | 1017.5 |
| 20260905164339 | 73 | 259 | 2.6 | 5.2 | 0.00 | 0.20 | 0.20 | 90 | 1017.4 |
| 20260905163832 | 72 | 313 | 1.7 | 5.2 | 0.00 | 0.20 | 0.20 | 90 | 1017.5 |
| 20260905163325 | 72 | 277 | 2.6 | 4.3 | 0.00 | 0.20 | 0.20 | 92 | 1017.2 |
| 20260905162334 | 71 | 192 | 2.6 | 5.2 | 0.00 | 0.20 | 0.20 | 93 | 1017.1 |
| 20260905161826 | 70 | 208 | 2.6 | 7.0 | 0.00 | 0.20 | 0.20 | 94 | 1017.1 |
| 20260905161400 | 70 | 171 | 3.5 | 7.0 | 0.00 | 0.20 | 0.20 | 94 | 1017.0 |
| 20260905160853 | 70 | 191 | 4.3 | 7.8 | 0.00 | 0.20 | 0.20 | 93 | 1017.0 |
| 20260905160330 | 70 | 185 | 3.5 | 6.1 | 0.00 | 0.20 | 0.20 | 94 | 1017.3 |
| 20260905155823 | 70 | 195 | 3.5 | 6.1 | 0.00 | 0.20 | 0.20 | 94 | 1017.4 |
| 20260905154852 | 69 | 191 | 1.7 | 3.5 | 0.00 | 0.20 | 0.20 | 93 | 1017.9 |
| 20260905154343 | 69 | 235 | 1.7 | 3.5 | 0.00 | 0.20 | 0.20 | 94 | 1018.1 |
| 20260905153835 | 69 | 1 | 0.9 | 2.6 | 0.00 | 0.20 | 0.20 | 93 | 1018.2 |
| 20260905152904 | 69 | 1 | 0.0 | 4.3 | 0.00 | 0.20 | 0.20 | 95 | 1018.6 |
| 20260905152341 | 69 | 1 | 2.6 | 4.3 | 0.00 | 0.20 | 0.20 | 94 | 1018.7 |
| 20260905151337 | 68 | 18 | 1.7 | 3.5 | 0.00 | 0.20 | 0.20 | 96 | 1018.9 |
| 20260905150830 | 68 | 285 | 1.7 | 6.1 | 0.00 | 0.20 | 0.20 | 96 | 1018.7 |
| 20260905150404 | 68 | 24 | 3.5 | 6.1 | 0.05 | 0.20 | 0.20 | 96 | 1018.8 |
| 20260905145856 | 68 | 38 | 3.5 | 6.1 | 0.18 | 0.20 | 0.20 | 97 | 1019.2 |
| 20260905145349 | 68 | 351 | 1.7 | 5.2 | 0.20 | 0.20 | 0.20 | 97 | 1019.0 |
| 20260905144825 | 68 | 322 | 1.7 | 3.5 | 0.20 | 0.20 | 0.20 | 98 | 1018.9 |
| 20260905143830 | 67 | 19 | 0.0 | 1.7 | 0.20 | 0.20 | 0.20 | 97 | 1018.7 |
| 20260905143404 | 67 | 19 | 0.0 | 2.6 | 0.20 | 0.20 | 0.20 | 97 | 1018.7 |
| 20260905142857 | 67 | 19 | 0.9 | 5.2 | 0.20 | 0.20 | 0.20 | 96 | 1018.7 |
| 20260905141852 | 67 | 30 | 2.6 | 5.2 | 0.20 | 0.20 | 0.20 | 96 | 1018.9 |
| 20260905141346 | 67 | 29 | 2.6 | 8.7 | 0.20 | 0.20 | 0.20 | 95 | 1018.8 |
| 20260905140838 | 67 | 18 | 4.3 | 11.3 | 0.20 | 0.20 | 0.20 | 95 | 1018.7 |
| 20260905140316 | 67 | 32 | 5.2 | 14.8 | 0.11 | 0.11 | 0.11 | 94 | 1018.7 |
| 20260905135849 | 68 | 1 | 7.8 | 14.8 | 0.01 | 0.01 | 0.01 | 93 | 1018.9 |
| 20260905135343 | 69 | 46 | 7.8 | 16.5 | 0.00 | 0.00 | 0.00 | 91 | 1018.7 |
| 20260905134835 | 70 | 352 | 7.8 | 19.1 | 0.00 | 0.00 | 0.00 | 90 | 1018.6 |
| 20260905134326 | 72 | 12 | 7.8 | 14.8 | 0.00 | 0.00 | 0.00 | 90 | 1018.4 |
| 20260905133821 | 73 | 21 | 0.9 | 4.3 | 0.00 | 0.00 | 0.00 | 90 | 1018.0 |
| 20260905133314 | 73 | 247 | 0.9 | 2.6 | 0.00 | 0.00 | 0.00 | 90 | 1017.8 |
| 20260905132907 | 73 | 247 | 0.9 | 5.2 | 0.00 | 0.00 | 0.00 | 89 | 1017.6 |
| 20260905132343 | 73 | 234 | 2.6 | 5.2 | 0.00 | 0.00 | 0.00 | 89 | 1017.7 |
| 20260905131837 | 74 | 277 | 1.7 | 6.1 | 0.00 | 0.00 | 0.00 | 88 | 1017.7 |
| 20260905131331 | 74 | 253 | 1.7 | 6.1 | 0.00 | 0.00 | 0.00 | 89 | 1017.7 |
| 20260905130903 | 74 | 231 | 0.0 | 3.5 | 0.00 | 0.00 | 0.00 | 90 | 1017.7 |
| 20260905130357 | 74 | 231 | 0.9 | 3.5 | 0.00 | 0.00 | 0.00 | 91 | 1017.6 |
| 20260905124900 | 73 | 245 | 2.6 | 4.3 | 0.00 | 0.00 | 0.00 | 92 | 1017.6 |
| 20260905124351 | 72 | 224 | 1.7 | 4.3 | 0.00 | 0.00 | 0.00 | 93 | 1017.5 |
| 20260905123828 | 71 | 224 | 1.7 | 6.1 | 0.00 | 0.00 | 0.00 | 94 | 1017.6 |
| 20260905123402 | 71 | 263 | 3.5 | 6.1 | 0.00 | 0.00 | 0.00 | 94 | 1017.7 |
| 20260905122330 | 70 | 249 | 2.6 | 4.3 | 0.00 | 0.00 | 0.00 | 95 | 1017.6 |
| 20260905121903 | 70 | 230 | 1.7 | 4.3 | 0.00 | 0.00 | 0.00 | 96 | 1017.6 |
| 20260905121356 | 69 | 215 | 1.7 | 5.2 | 0.00 | 0.00 | 0.00 | 96 | 1017.5 |
| 20260905120849 | 69 | 264 | 1.7 | 5.2 | 0.00 | 0.00 | 0.00 | 96 | 1017.6 |
| 20260905120338 | 69 | 222 | 0.9 | 3.5 | 0.00 | 0.00 | 0.00 | 97 | 1017.5 |
| 20260905115815 | 68 | 221 | 1.7 | 3.5 | 0.00 | 0.00 | 0.00 | 97 | 1017.4 |
| 20260905114825 | 68 | 205 | 1.7 | 4.3 | 0.00 | 0.00 | 0.00 | 97 | 1017.4 |